Kahului, HI

9:50 PM HST on May 24, 2018 (GMT -1000)
Kahului

Weather History for PHOG - December, 2013

Change the Weather History Date:

Sunday, December 15, 2013

  Actual Average Record
Temperature  
Mean Temperature 72 °F 73 °F  
Max Temperature 82 °F 82 °F 88 °F (1949)
Min Temperature 61 °F 65 °F 55 °F (1953)
Degree Days  
Heating Degree Days 0 0  
Month to date heating degree days 0 0  
Since 1 July heating degree days 0 0  
Cooling Degree Days 7 8  
Month to date cooling degree days 148 135  
Year to date cooling degree days 4126 3842  
Growing Degree Days 20 (Base 50)    
Moisture  
Dew Point 63 °F    
Average Humidity 71    
Maximum Humidity 90    
Minimum Humidity 51    
Precipitation  
Precipitation 0.00 in 0.11 in 0.45 in (1983)
Month to date precipitation T 1.58  
Year to date precipitation 13.59 16.06  
Snow  
Snow 0.00 in - - ()
Month to date snowfall 0.0  
Since 1 July snowfall 0.0  
Snow Depth 0.00 in    
Sea Level Pressure  
Sea Level Pressure 29.94 in    
Wind  
Wind Speed 5 mph (ESE)    
Max Wind Speed 21 mph    
Max Gust Speed 26 mph    
Visibility 10 miles    
Events      
T = Trace of Precipitation, MM = Missing Value Source: NWS Daily Summary

Daily Weather History Graph

Daily Weather History Graph

Search for Another Location

Airport or City:

Astronomy

Dec. 15, 2013 Rise Set
Actual Time 6:54 AM HST 5:47 PM HST
Civil Twilight 6:30 AM HST 6:11 PM HST
Nautical Twilight 6:03 AM HST 6:39 PM HST
Astronomical Twilight 5:35 AM HST 7:06 PM HST
Moon 4:52 PM HST (12/15) 5:29 AM HST (12/15)
Length of Visible Light 11h 40m
Length of Day
10h 52m
Waxing Gibbous, 98% of the Moon is Illuminated
Dec 15
Waxing Gibbous
Dec 16
Full
Dec 25
Last Quarter
Jan 1
New
Jan 7
First Quarter

Hourly Weather History & Observations

Time (HST) Temp. Heat Index Dew Point Humidity Pressure Visibility Wind Dir Wind Speed Gust Speed Precip Events Conditions
12:54 AM 66.0 °F - 62.1 °F 87% 29.96 in 10.0 mi SSE 4.6 mph - N/A   Clear
1:54 AM 64.9 °F - 61.0 °F 87% 29.94 in 10.0 mi SE 6.9 mph - N/A   Clear
2:54 AM 66.0 °F - 61.0 °F 84% 29.93 in 10.0 mi Calm Calm - N/A   Mostly Cloudy
3:54 AM 64.0 °F - 60.1 °F 87% 29.91 in 10.0 mi SSE 3.5 mph - N/A   Clear
4:54 AM 62.1 °F - 59.0 °F 90% 29.93 in 10.0 mi South 4.6 mph - N/A   Clear
5:54 AM 63.0 °F - 59.0 °F 87% 29.93 in 10.0 mi SE 9.2 mph - N/A   Clear
6:54 AM 62.1 °F - 57.9 °F 86% 29.95 in 10.0 mi SSE 5.8 mph - N/A   Clear
7:54 AM 64.0 °F - 60.1 °F 87% 29.96 in 10.0 mi SSE 4.6 mph - N/A   Clear
8:54 AM 73.9 °F - 63.0 °F 68% 29.98 in 10.0 mi Calm Calm - N/A   Clear
9:54 AM 79.0 °F - 62.1 °F 56% 29.99 in 10.0 mi Calm Calm - N/A   Clear
10:54 AM 79.0 °F - 62.1 °F 56% 29.99 in 10.0 mi NNW 3.5 mph - N/A   Scattered Clouds
11:54 AM 82.0 °F 83.0 °F 62.1 °F 51% 29.97 in 10.0 mi North 5.8 mph - N/A   Scattered Clouds
12:54 PM 81.0 °F 81.7 °F 61.0 °F 50% 29.96 in 10.0 mi North 8.1 mph - N/A   Mostly Cloudy
1:54 PM 79.0 °F - 64.9 °F 62% 29.94 in 10.0 mi NE 3.5 mph - N/A   Scattered Clouds
2:54 PM 79.0 °F - 64.9 °F 62% 29.93 in 10.0 mi North 15.0 mph - N/A   Scattered Clouds
3:54 PM 75.0 °F - 64.9 °F 71% 29.89 in 10.0 mi East 5.8 mph - N/A   Scattered Clouds
4:54 PM 73.9 °F - 66.9 °F 79% 29.88 in 10.0 mi NW 6.9 mph - N/A   Clear
5:54 PM 73.9 °F - 66.9 °F 79% 29.87 in 10.0 mi North 6.9 mph - N/A   Clear
6:54 PM 73.9 °F - 66.9 °F 79% 29.90 in 10.0 mi NW 4.6 mph - N/A   Clear
7:54 PM 70.0 °F - 66.0 °F 87% 29.92 in 10.0 mi Calm Calm - N/A   Clear
8:54 PM 68.0 °F - 64.0 °F 87% 29.94 in 10.0 mi SE 3.5 mph - N/A   Clear
9:54 PM 66.0 °F - 63.0 °F 90% 29.97 in 10.0 mi SE 3.5 mph - N/A   Clear
10:54 PM 66.0 °F - 63.0 °F 90% 29.96 in 10.0 mi SE 5.8 mph - N/A   Clear
11:54 PM 64.9 °F - 63.0 °F 93% 29.96 in 10.0 mi South 4.6 mph - N/A   Clear